{"data":{"norad_id":64803,"intl_designator":"2025-150P","name":"STARLINK-34620","alt_names":[],"object_type":"PAYLOAD","status":"ACTIVE","operator":null,"country":"US","launch_date":"2025-07-16","launch_site_code":"AFWTR","launch_vehicle":null,"mission":null,"orbit_class":"UNKNOWN","rcs_meters":null,"size_class":null,"mass_kg":null,"dimensions":null,"purposes":["comms"],"wikipedia_slug":null,"has_3d_model":false,"image_url":null,"decayed_at":null,"tle_current":{"epoch":"2026-09-20T13:37:50.199168Z","epoch_age_seconds":122071,"freshness":"FRESH","line1":"1 64803U 25150P   26263.56794212  .00002980  00000+0  25741-3 0  9999","line2":"2 64803  70.0044   3.2533 0002913 266.8143  93.2683 14.98337646 65709","mean_motion":14.98337646,"eccentricity":0.0002913,"inclination_deg":70.0044,"raan_deg":3.2533,"arg_perigee_deg":266.8143,"mean_anomaly_deg":93.2683,"bstar":0.00025741,"rev_number":6570,"period_min":96.106508692768,"perigee_km":570.0076621192,"apogee_km":574.05683072217,"semimajor_km":6950.1692464207,"source":"CELESTRAK","updated_at":"2026-09-21T09:00:35.445097Z"}}}